Regional Weather Roundup
Issued by NWS Boston, MA

Current Version | Previous Version | Text Only | Print | Product List | Glossary Off
Versions: 1 2 3 4 5 6 7 8 9 10 11 12 13 14 15 16 17 18 19 20 21 22 23 24 25 26 27 28 29 30 31 32 33 34 35 36 37 38 39 40 41 42 43 44 45 46 47 48 49 50
626 ASUS41 KBOX 220810 RWRBOX REGIONAL WEATHER ROUNDUP NATIONAL WEATHER SERVICE TAUNTON MA 300 AM EST WED NOV 22 2017 NOTE: "FAIR" INDICATES FEW OR NO CLOUDS BELOW 12,000 FEET WITH NO SIGNIFICANT WEATHER AND/OR OBSTRUCTIONS TO VISIBILITY. MAZALL-220900- EASTERN MASSACHUSETTS CITY SKY/WX TMP DP RH WIND PRES REMARKS BOSTON CLOUDY 46 42 86 S9 30.01F BEVERLY CLOUDY 47 40 76 CALM 29.99F LAWRENCE MOCLDY 47 38 71 S5 30.01F BEDFORD MOCLDY 48 40 73 SW3 29.98F BLUE HILL N/A 49 42 77 S13 29.99F NORWOOD MOCLDY 41 38 89 CALM 30.01S MARSHFIELD MOCLDY 54 48 82 S6 30.02S PLYMOUTH CLOUDY 55 49 80 S5 30.03S TAUNTON CLOUDY 53 48 83 S5 30.01F NEW BEDFORD LGT RAIN 55 50 83 S5 30.02S $$ MAZALL-220900- CAPE COD AND THE ISLANDS CITY SKY/WX TMP DP RH WIND PRES REMARKS FALMOUTH CLOUDY 55 52 88 S9 30.04F HYANNIS CLOUDY 54 50 86 SE5 30.03F CHATHAM CLOUDY 54 52 93 SW3 30.06F PROVINCETOWN CLOUDY 54 50 86 S8 30.04S NANTUCKET CLOUDY 56 53 90 S15 30.05F MARTHAS VNYRD MOCLDY 55 53 93 SW7 30.03F $$ MAZALL-220900- CENTRAL AND WESTERN MASSACHUSETTS CITY SKY/WX TMP DP RH WIND PRES REMARKS WORCESTER CLOUDY 45 38 76 SW10 29.97F FITCHBURG MOCLDY 40 36 86 CALM 29.99S ORANGE CLOUDY 31 31 100 CALM 29.97S SPRINGFIELD CLOUDY 37 35 91 CALM 29.97S WESTFIELD CLOUDY 39 37 92 S3 29.98S NORTH ADAMS PTCLDY 36 30 79 SW3 29.95R PITTSFIELD CLOUDY 38 31 76 W7 29.94S $$ RIZALL-220900- RHODE ISLAND CITY SKY/WX TMP DP RH WIND PRES REMARKS PROVIDENCE CLOUDY 51 49 92 S7 30.02F NEWPORT LGT RAIN 54 52 93 S3 30.02S BLOCK ISLAND CLOUDY 56 53 90 W7 30.02F SMITHFIELD MOCLDY 49 45 86 SW3 30.00F WESTERLY LGT RAIN 54 53 97 CALM 30.02F FOG $$ CTZALL-220900- CONNECTICUT CITY SKY/WX TMP DP RH WIND PRES REMARKS BRADLEY INTL CLOUDY 40 37 89 CALM 29.99S HARTFORD MOCLDY 43 40 89 CALM 29.99S BRIDGEPORT CLOUDY 52 46 80 SW3 29.99F DANBURY MOCLDY 39 36 89 N3 29.98F GROTON LGT RAIN 50 47 89 CALM 30.00F NEW HAVEN CLOUDY 53 47 79 S5 29.99F CHESTER FAIR 54 46 76 VRB5 30.00S MERIDEN CLOUDY 38 37 97 CALM 29.99F WILLIMANTIC CLOUDY 42 38 85 CALM 30.01S OXFORD MOCLDY 47 40 76 SW3 29.98F $$ MEZ002-015-021-024-NHZ003-005-008-011-012-014-VTZ005-008-220900- NORTHERN NEW ENGLAND CITY SKY/WX TMP DP RH WIND PRES REMARKS PORTLAND ME CLOUDY 43 35 73 SW7 29.98S BANGOR ME CLEAR 41 35 79 S5 29.97R CONCORD NH CLOUDY 31 27 85 CALM 29.98R MANCHESTER NH PTCLDY 39 34 82 CALM 29.97S NASHUA NH PTCLDY 31 30 96 CALM 29.99S PORTSMOUTH NH MOCLDY 43 37 77 S6 29.97F JAFFREY NH CLOUDY 33 33 100 CALM 29.97S KEENE NH CLOUDY 28 24 85 CALM 29.97S BURLINGTON VT CLOUDY 49 28 44 S13 29.87S MT. WASHINGTON PTCLDY 25 19 80 W45 N/A WCI 5 $$ NYZ052-076-220900- EASTERN NEW YORK CITY SKY/WX TMP DP RH WIND PRES REMARKS ALBANY CLOUDY 44 31 60 S10 29.94R NEW YORK CITY NOT AVBL $$ ANZALL-220900- MARINE OBSERVATIONS STATION/POSITION TIME TEMP WIND PRES VSBY WAVE AIR SEA DIR/SP/G HT/PER (UTC) (F) (DEG/KT/KT) (MB) (MI) (FT/S) BOSTON BUOY 0750 52 51 170/ 8/ 10 1015.0F 1/ 4 BUZZARDS BAY 0700 58 220/ 11/ 12 1017.3F NANTUCKET SOUND 0750 54 50 190/ 14/ 16 1016.9F 2/ 3 MASS BAY-STELLWA 0704 52 49 200/ 12/ 14 1015.4F 2/ 5 ISLE OF SHOALS 0700 50 200/ 18/ 19 1015.3S S OF BLOCK IS NOT AVBL $$ ......................KEY......................... SKY/WX - SKY CONDITION/PRESENT WEATHER TMP - TEMPERATURE IN FAHRENHEIT DWPT - DEWPOINT IN FAHRENHEIT RH - RELATIVE HUMIDITY IN PERCENT WIND - DIRECTION AND SPEED IN MPH PRES - MEAN SEA LEVEL PRESSURE IN INCHES OF HG WCI - WIND CHILL INDEX VSB - VISIBILITY IN MILES HX - HEAT INDEX TC - TEMPERATURE IN CELSIUS VRB - VARIABLE WIND DIRECTION N/A - NOT AVAILABLE

USA.gov is the U.S. government's official web portal to all federal, state and local government web resources and services.